Location: Mercogliano
(40.9167°N, 14.7333°E)
Time: 05:06:55
(UTC+00:00)

Cosmos 2151 Rocket - Pass Details

Date: 18 September 2020
Orbit: 618 x 642 km, 82.5° (Epoch: 25 October)

Event Time Altitude Azimuth Distance (km) Brightness Sun altitude
Rises 18:42:12 0° 184° (S) 2,894 6.8 -18.9°
Reaches altitude 10° 18:44:25 10° 183° (S) 1,995 6.0 -19.3°
Maximum altitude 18:48:50 81° 98° (E) 644 3.4 -20.1°
Drops below altitude 10° 18:53:20 10° 10° (N) 2,027 6.3 -20.9°
Sets 18:55:35 0° 9° (N) 2,943 7.2 -21.3°
